| time (UTC) | temp F | wind direction | speed knots | gust knots | rain 1hr in | rain 24hr in | rain mn in | humidity % | barometer mb |
| 20260903164415 | 52 | 92 | 0.9 | 3.5 | 0.01 | 0.50 | 0.06 | 98 | 1012.0 |
| 20260903163914 | 52 | 29 | 0.9 | 2.6 | 0.01 | 0.50 | 0.06 | 98 | 1011.9 |
| 20260903163416 | 52 | 25 | 0.0 | 0.0 | 0.01 | 0.50 | 0.06 | 98 | 1011.8 |
| 20260903162909 | 52 | 25 | 0.0 | 0.0 | 0.01 | 0.50 | 0.06 | 98 | 1011.8 |
| 20260903162356 | 51 | 25 | 0.0 | 0.0 | 0.01 | 0.50 | 0.06 | 98 | 1011.8 |
| 20260903161850 | 51 | 25 | 0.0 | 4.3 | 0.01 | 0.50 | 0.06 | 98 | 1011.8 |
| 20260903161351 | 51 | 25 | 0.0 | 4.3 | 0.00 | 0.49 | 0.05 | 98 | 1011.8 |
| 20260903160840 | 51 | 130 | 0.0 | 4.3 | 0.00 | 0.49 | 0.05 | 98 | 1011.8 |
| 20260903160552 | 51 | 44 | 0.0 | 4.3 | 0.00 | 0.49 | 0.05 | 98 | 1011.8 |
| 20260903160059 | 51 | 191 | 0.0 | 6.1 | 0.00 | 0.49 | 0.05 | 98 | 1011.8 |
| 20260903155335 | 51 | 109 | 0.0 | 6.1 | 0.00 | 0.49 | 0.05 | 98 | 1011.7 |
| 20260903154831 | 51 | 143 | 0.0 | 3.5 | 0.01 | 0.49 | 0.05 | 98 | 1011.6 |
| 20260903154327 | 51 | 143 | 0.9 | 3.5 | 0.01 | 0.49 | 0.05 | 98 | 1011.6 |
| 20260903153820 | 51 | 343 | 0.0 | 2.6 | 0.01 | 0.49 | 0.05 | 98 | 1011.6 |
| 20260903153322 | 51 | 223 | 0.0 | 5.2 | 0.01 | 0.49 | 0.05 | 98 | 1011.6 |
| 20260903152821 | 51 | 233 | 0.9 | 5.2 | 0.01 | 0.49 | 0.05 | 98 | 1011.5 |
| 20260903152311 | 51 | 11 | 0.0 | 2.6 | 0.01 | 0.49 | 0.05 | 98 | 1011.5 |
| 20260903151811 | 51 | 277 | 0.0 | 1.7 | 0.01 | 0.49 | 0.05 | 98 | 1011.5 |
| 20260903151312 | 51 | 309 | 0.0 | 2.6 | 0.02 | 0.49 | 0.05 | 98 | 1011.5 |
| 20260903150812 | 51 | 309 | 0.0 | 2.6 | 0.02 | 0.49 | 0.05 | 98 | 1011.5 |
| 20260903150307 | 51 | 263 | 0.0 | 0.0 | 0.03 | 0.49 | 0.05 | 98 | 1011.5 |
| 20260903145809 | 51 | 263 | 0.0 | 0.0 | 0.03 | 0.49 | 0.05 | 98 | 1011.5 |
| 20260903145518 | 50 | 263 | 0.0 | 0.9 | 0.03 | 0.48 | 0.04 | 98 | 1011.5 |
| 20260903145400 | 51 | 263 | 0.0 | 0.9 | 0.03 | 0.49 | 0.05 | 98 | 1011.5 |
| 20260903144253 | 50 | 263 | 0.0 | 0.0 | 0.03 | 0.48 | 0.04 | 98 | 1011.5 |
| 20260903143750 | 50 | 263 | 0.0 | 0.0 | 0.03 | 0.48 | 0.04 | 98 | 1011.5 |
| 20260903143248 | 50 | 263 | 0.0 | 0.0 | 0.03 | 0.48 | 0.04 | 98 | 1011.5 |
| 20260903142747 | 50 | 263 | 0.0 | 0.0 | 0.03 | 0.48 | 0.04 | 98 | 1011.4 |
| 20260903142247 | 50 | 263 | 0.0 | 0.9 | 0.04 | 0.48 | 0.04 | 98 | 1011.4 |
| 20260903141733 | 50 | 263 | 0.0 | 0.9 | 0.04 | 0.48 | 0.04 | 97 | 1011.4 |
| 20260903141233 | 49 | 262 | 0.0 | 0.0 | 0.03 | 0.47 | 0.03 | 97 | 1011.4 |
| 20260903140733 | 49 | 262 | 0.0 | 0.0 | 0.02 | 0.46 | 0.03 | 98 | 1011.4 |
| 20260903140233 | 49 | 262 | 0.0 | 0.0 | 0.02 | 0.46 | 0.02 | 98 | 1011.4 |
| 20260903135734 | 49 | 262 | 0.0 | 0.0 | 0.02 | 0.46 | 0.02 | 97 | 1011.4 |
| 20260903135448 | 49 | 262 | 0.0 | 0.0 | 0.02 | 0.46 | 0.02 | 97 | 1011.2 |
| 20260903134724 | 49 | 262 | 0.0 | 0.0 | 0.01 | 0.45 | 0.01 | 97 | 1011.4 |
| 20260903134223 | 49 | 262 | 0.0 | 0.0 | 0.01 | 0.45 | 0.01 | 97 | 1011.2 |
| 20260903134210 | 49 | 262 | 0.0 | 0.0 | 0.01 | 0.45 | 0.01 | 97 | 1011.1 |
| 20260903133215 | 49 | 262 | 0.0 | 0.0 | 0.01 | 0.45 | 0.01 | 97 | 1011.1 |
| 20260903132709 | 49 | 262 | 0.0 | 0.0 | 0.01 | 0.45 | 0.01 | 97 | 1011.1 |
| 20260903132205 | 49 | 262 | 0.0 | 0.0 | 0.00 | 0.44 | 0.00 | 97 | 1011.0 |
| 20260903131706 | 49 | 262 | 0.0 | 0.0 | 0.00 | 0.44 | 0.00 | 97 | 1011.0 |
| 20260903131155 | 49 | 262 | 0.0 | 0.0 | 0.00 | 0.44 | 0.00 | 97 | 1010.9 |
| 20260903130644 | 49 | 262 | 0.0 | 0.0 | 0.00 | 0.44 | 0.00 | 97 | 1010.9 |
| 20260903130146 | 49 | 262 | 0.0 | 0.0 | 0.00 | 0.44 | 0.00 | 97 | 1010.7 |
| 20260903125908 | 49 | 262 | 0.0 | 0.0 | 0.00 | 0.44 | 0.00 | 97 | 1010.7 |
| 20260903125146 | 49 | 262 | 0.0 | 0.0 | 0.00 | 0.44 | 0.00 | 97 | 1010.8 |
| 20260903124648 | 49 | 262 | 0.0 | 0.0 | 0.00 | 0.44 | 0.00 | 97 | 1010.6 |
| 20260903124144 | 49 | 262 | 0.0 | 0.0 | 0.00 | 0.44 | 0.00 | 97 | 1010.6 |
| 20260903123635 | 49 | 262 | 0.0 | 0.0 | 0.00 | 0.44 | 0.00 | 97 | 1010.5 |
| 20260903123137 | 49 | 262 | 0.0 | 0.0 | 0.00 | 0.44 | 0.00 | 97 | 1010.6 |
| 20260903122636 | 49 | 262 | 0.0 | 0.0 | 0.00 | 0.44 | 0.00 | 97 | 1010.5 |
| 20260903122135 | 49 | 262 | 0.0 | 0.0 | 0.00 | 0.44 | 0.00 | 97 | 1010.5 |
| 20260903121627 | 49 | 262 | 0.0 | 0.0 | 0.00 | 0.44 | 0.00 | 97 | 1010.5 |
| 20260903121127 | 49 | 262 | 0.0 | 0.0 | 0.00 | 0.44 | 0.00 | 97 | 1010.5 |
| 20260903120626 | 49 | 262 | 0.0 | 0.0 | 0.00 | 0.44 | 0.00 | 97 | 1010.7 |
| 20260903120119 | 49 | 262 | 0.0 | 0.0 | 0.00 | 0.44 | 0.00 | 97 | 1010.7 |
| 20260903115615 | 49 | 262 | 0.0 | 0.0 | 0.00 | 0.44 | 0.00 | 97 | 1010.7 |
| 20260903115111 | 49 | 262 | 0.0 | 0.0 | 0.00 | 0.44 | 0.00 | 97 | 1010.6 |
| 20260903114611 | 49 | 262 | 0.0 | 0.0 | 0.00 | 0.44 | 0.00 | 97 | 1010.6 |
| 20260903114112 | 49 | 262 | 0.0 | 0.0 | 0.00 | 0.44 | 0.00 | 97 | 1010.6 |
| 20260903113602 | 49 | 262 | 0.0 | 0.0 | 0.00 | 0.44 | 0.00 | 97 | 1010.6 |
| 20260903113540 | 49 | 262 | 0.0 | 0.0 | 0.00 | 0.44 | 0.00 | 97 | 1010.3 |
| 20260903112547 | 49 | 262 | 0.0 | 0.0 | 0.00 | 0.44 | 0.00 | 97 | 1010.3 |
| 20260903112043 | 49 | 262 | 0.0 | 0.0 | 0.00 | 0.44 | 0.00 | 97 | 1010.2 |
| 20260903111538 | 49 | 262 | 0.0 | 0.0 | 0.00 | 0.44 | 0.00 | 97 | 1010.2 |
| 20260903111038 | 49 | 262 | 0.0 | 0.0 | 0.00 | 0.44 | 0.00 | 97 | 1010.5 |
| 20260903110537 | 49 | 262 | 0.0 | 0.0 | 0.00 | 0.44 | 0.00 | 97 | 1010.7 |
| 20260903110034 | 49 | 262 | 0.0 | 0.0 | 0.00 | 0.44 | 0.00 | 97 | 1010.7 |
| 20260903105533 | 49 | 262 | 0.0 | 0.0 | 0.00 | 0.44 | 0.00 | 97 | 1010.8 |
| 20260903105252 | 49 | 262 | 0.0 | 0.0 | 0.00 | 0.44 | 0.00 | 97 | 1010.7 |
| 20260903104528 | 49 | 262 | 0.0 | 0.0 | 0.00 | 0.44 | 0.00 | 97 | 1010.7 |
| 20260903104014 | 49 | 262 | 0.0 | 0.0 | 0.00 | 0.44 | 0.00 | 97 | 1010.6 |
| 20260903103508 | 49 | 262 | 0.0 | 0.0 | 0.00 | 0.44 | 0.00 | 97 | 1010.6 |
| 20260903103004 | 49 | 262 | 0.0 | 0.0 | 0.00 | 0.44 | 0.00 | 97 | 1010.7 |
| 20260903102444 | 49 | 262 | 0.0 | 0.0 | 0.00 | 0.44 | 0.00 | 97 | 1010.5 |
| 20260903101938 | 49 | 262 | 0.0 | 0.0 | 0.00 | 0.44 | 0.00 | 97 | 1010.6 |
| 20260903101650 | 49 | 262 | 0.0 | 0.0 | 0.00 | 0.44 | 0.00 | 97 | 1010.5 |
| 20260903100923 | 49 | 262 | 0.0 | 0.0 | 0.00 | 0.44 | 0.00 | 97 | 1010.5 |
| 20260903100653 | 49 | 262 | 0.0 | 0.0 | 0.00 | 0.44 | 0.00 | 97 | 1010.3 |
| 20260903100133 | 48 | 262 | 0.0 | 0.0 | 0.00 | 0.44 | 0.00 | 97 | 1010.3 |
| 20260903095354 | 48 | 262 | 0.0 | 0.0 | 0.00 | 0.44 | 0.00 | 97 | 1010.2 |
| 20260903094853 | 48 | 262 | 0.0 | 0.0 | 0.00 | 0.44 | 0.00 | 97 | 1010.3 |
| 20260903094353 | 48 | 262 | 0.0 | 0.0 | 0.00 | 0.44 | 0.00 | 97 | 1010.3 |
| 20260903093857 | 48 | 262 | 0.0 | 0.0 | 0.00 | 0.44 | 0.00 | 97 | 1010.3 |
| 20260903093354 | 48 | 262 | 0.0 | 0.0 | 0.00 | 0.44 | 0.00 | 97 | 1010.3 |
| 20260903092844 | 48 | 262 | 0.0 | 0.0 | 0.00 | 0.44 | 0.00 | 97 | 1010.3 |
| 20260903092334 | 48 | 262 | 0.0 | 0.0 | 0.00 | 0.44 | 0.00 | 97 | 1010.5 |
| 20260903091829 | 48 | 262 | 0.0 | 0.0 | 0.00 | 0.44 | 0.00 | 97 | 1010.1 |
| 20260903091315 | 48 | 262 | 0.0 | 0.0 | 0.00 | 0.44 | 0.00 | 97 | 1010.2 |
| 20260903090814 | 48 | 262 | 0.0 | 0.0 | 0.00 | 0.44 | 0.00 | 97 | 1010.3 |
| 20260903090310 | 48 | 262 | 0.0 | 0.0 | 0.00 | 0.44 | 0.00 | 97 | 1010.3 |
| 20260903085811 | 48 | 262 | 0.0 | 0.0 | 0.00 | 0.44 | 0.00 | 97 | 1010.3 |
| 20260903085310 | 48 | 262 | 0.0 | 0.0 | 0.00 | 0.44 | 0.00 | 97 | 1010.5 |
| 20260903084816 | 48 | 262 | 0.0 | 0.0 | 0.00 | 0.44 | 0.00 | 97 | 1010.3 |
| 20260903084310 | 48 | 262 | 0.0 | 0.0 | 0.00 | 0.44 | 0.00 | 97 | 1010.5 |
| 20260903084030 | 48 | 262 | 0.0 | 0.0 | 0.00 | 0.44 | 0.00 | 97 | 1010.6 |
| 20260903083305 | 47 | 262 | 0.0 | 0.0 | 0.00 | 0.44 | 0.00 | 97 | 1010.6 |
| 20260903082812 | 47 | 262 | 0.0 | 0.0 | 0.00 | 0.44 | 0.00 | 96 | 1010.6 |
| 20260903082301 | 47 | 262 | 0.0 | 0.0 | 0.00 | 0.44 | 0.00 | 96 | 1010.5 |
| 20260903081803 | 47 | 262 | 0.0 | 0.0 | 0.00 | 0.44 | 0.00 | 96 | 1010.3 |
| 20260903081246 | 47 | 262 | 0.0 | 0.0 | 0.00 | 0.44 | 0.00 | 96 | 1010.3 |
| 20260903080736 | 47 | 262 | 0.0 | 0.0 | 0.00 | 0.44 | 0.00 | 96 | 1010.3 |
| 20260903080237 | 47 | 262 | 0.0 | 0.0 | 0.00 | 0.44 | 0.00 | 96 | 1010.3 |
| 20260903075734 | 47 | 262 | 0.0 | 0.0 | 0.00 | 0.44 | 0.00 | 96 | 1010.5 |
| 20260903075227 | 47 | 262 | 0.0 | 0.0 | 0.00 | 0.44 | 0.00 | 96 | 1010.5 |
| 20260903074717 | 47 | 262 | 0.0 | 0.0 | 0.00 | 0.44 | 0.00 | 96 | 1010.5 |
| 20260903074216 | 47 | 262 | 0.0 | 0.0 | 0.00 | 0.44 | 0.00 | 96 | 1010.2 |
| 20260903073717 | 47 | 262 | 0.0 | 0.0 | 0.00 | 0.44 | 0.00 | 96 | 1010.2 |
| 20260903073217 | 47 | 262 | 0.0 | 0.0 | 0.00 | 0.44 | 0.00 | 96 | 1010.1 |
| 20260903072657 | 47 | 262 | 0.0 | 0.0 | 0.00 | 0.44 | 0.00 | 95 | 1010.2 |
| 20260903072417 | 47 | 262 | 0.0 | 0.0 | 0.00 | 0.44 | 0.00 | 95 | 1010.1 |
| 20260903071658 | 47 | 262 | 0.0 | 0.0 | 0.00 | 0.44 | 0.00 | 95 | 1010.0 |
| 20260903071150 | 47 | 262 | 0.0 | 0.0 | 0.00 | 0.44 | 0.00 | 95 | 1010.1 |
| 20260903070648 | 47 | 262 | 0.0 | 0.0 | 0.00 | 0.44 | 0.00 | 95 | 1010.2 |
| 20260903070147 | 47 | 262 | 0.0 | 0.0 | 0.00 | 0.44 | 0.00 | 95 | 1010.2 |
| 20260903065648 | 47 | 262 | 0.0 | 0.0 | 0.00 | 0.44 | 0.00 | 95 | 1010.0 |
| 20260903065138 | 47 | 262 | 0.0 | 0.0 | 0.00 | 0.44 | 0.00 | 95 | 1009.9 |
| 20260903064903 | 47 | 262 | 0.0 | 0.0 | 0.00 | 0.44 | 0.00 | 95 | 1009.9 |
| 20260903064134 | 47 | 262 | 0.0 | 0.0 | 0.00 | 0.44 | 0.00 | 95 | 1010.1 |
| 20260903063628 | 47 | 262 | 0.0 | 0.0 | 0.00 | 0.44 | 0.00 | 95 | 1010.1 |
| 20260903063124 | 48 | 262 | 0.0 | 0.0 | 0.00 | 0.44 | 0.00 | 95 | 1010.2 |
| 20260903062627 | 48 | 262 | 0.0 | 0.0 | 0.00 | 0.44 | 0.00 | 95 | 1010.2 |
| 20260903062124 | 48 | 262 | 0.0 | 0.0 | 0.00 | 0.44 | 0.00 | 95 | 1010.2 |
| 20260903061619 | 48 | 262 | 0.0 | 0.0 | 0.00 | 0.44 | 0.00 | 95 | 1010.2 |
| 20260903061119 | 48 | 262 | 0.0 | 0.0 | 0.00 | 0.44 | 0.00 | 95 | 1010.2 |
| 20260903061059 | 48 | 262 | 0.0 | 0.0 | 0.00 | 0.44 | 0.00 | 95 | 1010.2 |
| 20260903060059 | 49 | 262 | 0.0 | 0.0 | 0.00 | 0.44 | 0.00 | 95 | 1010.3 |
| 20260903055559 | 49 | 262 | 0.0 | 0.0 | 0.00 | 0.44 | 0.44 | 95 | 1010.2 |
| 20260903055100 | 49 | 262 | 0.0 | 0.0 | 0.00 | 0.44 | 0.44 | 95 | 1010.3 |
| 20260903054600 | 49 | 262 | 0.0 | 0.0 | 0.00 | 0.44 | 0.44 | 95 | 1010.5 |
| 20260903054103 | 49 | 262 | 0.0 | 0.0 | 0.00 | 0.44 | 0.44 | 95 | 1010.5 |
| 20260903053601 | 49 | 262 | 0.0 | 0.0 | 0.00 | 0.44 | 0.44 | 95 | 1010.6 |
| 20260903053045 | 49 | 262 | 0.0 | 0.0 | 0.00 | 0.44 | 0.44 | 95 | 1010.7 |
| 20260903052543 | 50 | 262 | 0.0 | 0.0 | 0.00 | 0.44 | 0.44 | 95 | 1010.7 |
| 20260903052306 | 50 | 262 | 0.0 | 0.0 | 0.00 | 0.44 | 0.44 | 95 | 1010.7 |
| 20260903051536 | 50 | 262 | 0.0 | 0.0 | 0.00 | 0.44 | 0.44 | 95 | 1010.7 |
| 20260903051036 | 50 | 262 | 0.0 | 0.0 | 0.00 | 0.44 | 0.44 | 95 | 1010.8 |
| 20260903050531 | 50 | 262 | 0.0 | 0.0 | 0.00 | 0.44 | 0.44 | 96 | 1010.8 |
| 20260903050021 | 50 | 262 | 0.0 | 0.0 | 0.00 | 0.44 | 0.44 | 96 | 1011.0 |
| 20260903045521 | 50 | 262 | 0.0 | 0.0 | 0.00 | 0.44 | 0.44 | 96 | 1011.0 |
| 20260903045022 | 50 | 262 | 0.0 | 0.0 | 0.00 | 0.44 | 0.44 | 96 | 1011.0 |
| 20260903044524 | 51 | 262 | 0.0 | 0.0 | 0.00 | 0.44 | 0.44 | 96 | 1011.1 |
| 20260903044016 | 51 | 262 | 0.0 | 0.0 | 0.00 | 0.44 | 0.44 | 96 | 1011.2 |
| 20260903043516 | 51 | 262 | 0.0 | 0.0 | 0.00 | 0.44 | 0.44 | 96 | 1011.4 |
| 20260903043017 | 51 | 262 | 0.0 | 0.0 | 0.00 | 0.44 | 0.44 | 96 | 1011.4 |
| 20260903042742 | 51 | 262 | 0.0 | 0.0 | 0.00 | 0.44 | 0.44 | 96 | 1011.4 |
| 20260903042239 | 51 | 262 | 0.0 | 0.0 | 0.00 | 0.44 | 0.44 | 96 | 1011.6 |
| 20260903041503 | 51 | 262 | 0.0 | 0.0 | 0.00 | 0.44 | 0.44 | 95 | 1011.5 |
| 20260903040957 | 51 | 262 | 0.0 | 0.0 | 0.00 | 0.44 | 0.44 | 95 | 1011.5 |
| 20260903040500 | 51 | 262 | 0.0 | 0.0 | 0.00 | 0.44 | 0.44 | 95 | 1011.6 |
| 20260903035957 | 51 | 262 | 0.0 | 0.0 | 0.00 | 0.44 | 0.44 | 95 | 1011.7 |
| 20260903035501 | 51 | 262 | 0.0 | 0.0 | 0.00 | 0.44 | 0.44 | 95 | 1011.7 |
| 20260903034948 | 51 | 262 | 0.0 | 0.0 | 0.00 | 0.44 | 0.44 | 95 | 1011.7 |
| 20260903034448 | 51 | 262 | 0.0 | 0.0 | 0.00 | 0.44 | 0.44 | 95 | 1011.7 |
| 20260903033933 | 51 | 262 | 0.0 | 0.0 | 0.00 | 0.44 | 0.44 | 95 | 1011.8 |
| 20260903033423 | 51 | 262 | 0.0 | 0.0 | 0.00 | 0.44 | 0.44 | 95 | 1011.8 |
| 20260903032917 | 51 | 262 | 0.0 | 0.0 | 0.00 | 0.44 | 0.44 | 95 | 1011.8 |
| 20260903032411 | 51 | 262 | 0.0 | 0.0 | 0.00 | 0.44 | 0.44 | 95 | 1011.8 |
| 20260903031906 | 51 | 262 | 0.0 | 0.0 | 0.00 | 0.44 | 0.44 | 95 | 1011.7 |
| 20260903031359 | 51 | 262 | 0.0 | 0.0 | 0.00 | 0.44 | 0.44 | 95 | 1011.8 |
| 20260903030854 | 51 | 262 | 0.0 | 0.0 | 0.00 | 0.44 | 0.44 | 95 | 1011.7 |
| 20260903030343 | 51 | 262 | 0.0 | 0.0 | 0.00 | 0.44 | 0.44 | 95 | 1011.7 |
| 20260903025844 | 51 | 262 | 0.0 | 0.0 | 0.00 | 0.44 | 0.44 | 95 | 1011.6 |
| 20260903025344 | 51 | 262 | 0.0 | 0.0 | 0.00 | 0.44 | 0.44 | 95 | 1011.6 |
| 20260903024844 | 51 | 262 | 0.0 | 0.0 | 0.00 | 0.44 | 0.44 | 94 | 1011.5 |
| 20260903024829 | 51 | 262 | 0.0 | 0.0 | 0.00 | 0.44 | 0.44 | 94 | 1011.5 |
| 20260903023844 | 51 | 262 | 0.0 | 0.0 | 0.00 | 0.44 | 0.44 | 94 | 1011.5 |
| 20260903023342 | 51 | 262 | 0.0 | 0.0 | 0.00 | 0.44 | 0.44 | 94 | 1011.4 |
| 20260903022830 | 51 | 262 | 0.0 | 0.0 | 0.00 | 0.44 | 0.44 | 95 | 1011.4 |
| 20260903022330 | 51 | 262 | 0.0 | 0.0 | 0.00 | 0.44 | 0.44 | 95 | 1011.2 |
| 20260903021833 | 51 | 262 | 0.0 | 0.0 | 0.00 | 0.44 | 0.44 | 94 | 1011.2 |
| 20260903021321 | 51 | 262 | 0.0 | 0.0 | 0.00 | 0.44 | 0.44 | 94 | 1011.2 |
| 20260903020821 | 51 | 262 | 0.0 | 0.0 | 0.00 | 0.44 | 0.44 | 94 | 1011.2 |
| 20260903020321 | 51 | 262 | 0.0 | 0.0 | 0.00 | 0.44 | 0.44 | 94 | 1011.2 |
| 20260903015815 | 51 | 262 | 0.0 | 0.0 | 0.01 | 0.44 | 0.44 | 94 | 1011.2 |
| 20260903015316 | 51 | 262 | 0.0 | 0.0 | 0.01 | 0.44 | 0.44 | 94 | 1011.2 |
| 20260903014816 | 51 | 262 | 0.0 | 0.0 | 0.01 | 0.44 | 0.44 | 94 | 1011.1 |
| 20260903014311 | 52 | 262 | 0.0 | 0.9 | 0.02 | 0.44 | 0.44 | 94 | 1011.1 |
| 20260903013814 | 52 | 262 | 0.0 | 0.9 | 0.02 | 0.44 | 0.44 | 94 | 1011.1 |
| 20260903013801 | 52 | 261 | 0.0 | 0.9 | 0.03 | 0.44 | 0.44 | 94 | 1011.1 |
| 20260903012757 | 52 | 261 | 0.0 | 1.7 | 0.03 | 0.44 | 0.44 | 94 | 1011.1 |
| 20260903012257 | 52 | 260 | 0.0 | 1.7 | 0.04 | 0.44 | 0.44 | 94 | 1011.1 |
| 20260903011757 | 52 | 260 | 0.0 | 0.0 | 0.05 | 0.44 | 0.44 | 94 | 1011.1 |
| 20260903011515 | 52 | 260 | 0.0 | 1.7 | 0.06 | 0.44 | 0.44 | 94 | 1011.1 |
| 20260903010757 | 52 | 260 | 0.0 | 1.7 | 0.06 | 0.44 | 0.44 | 94 | 1011.1 |
| 20260903010257 | 52 | 0 | 0.0 | 1.7 | 0.08 | 0.44 | 0.44 | 95 | 1011.2 |
| 20260903005752 | 52 | 347 | 0.0 | 0.0 | 0.08 | 0.43 | 0.43 | 95 | 1011.1 |
| 20260903005245 | 52 | 347 | 0.0 | 0.9 | 0.10 | 0.43 | 0.43 | 95 | 1011.2 |
| 20260903004954 | 52 | 347 | 0.0 | 0.9 | 0.12 | 0.43 | 0.43 | 95 | 1011.4 |
| 20260903004227 | 52 | 347 | 0.0 | 0.0 | 0.13 | 0.42 | 0.42 | 95 | 1011.4 |
| 20260903003949 | 52 | 347 | 0.0 | 0.0 | 0.14 | 0.42 | 0.42 | 94 | 1011.4 |
| 20260903003228 | 52 | 347 | 0.0 | 0.0 | 0.15 | 0.41 | 0.41 | 94 | 1011.5 |
| 20260903002912 | 52 | 347 | 0.0 | 0.0 | 0.16 | 0.39 | 0.39 | 94 | 1011.6 |
| 20260903002751 | 52 | 347 | 0.0 | 0.0 | 0.16 | 0.41 | 0.41 | 94 | 1011.5 |
| 20260903002307 | 52 | 347 | 0.0 | 0.0 | 0.16 | 0.40 | 0.40 | 94 | 1011.6 |
| 20260903001218 | 52 | 347 | 0.0 | 0.0 | 0.16 | 0.38 | 0.38 | 94 | 1011.6 |
| 20260903000939 | 52 | 347 | 0.0 | 0.0 | 0.16 | 0.37 | 0.38 | 94 | 1011.6 |
| 20260902235717 | 52 | 347 | 0.0 | 4.3 | 0.15 | 0.35 | 0.35 | 93 | 1011.5 |
| 20260902235214 | 52 | 51 | 0.0 | 3.5 | 0.13 | 0.33 | 0.33 | 93 | 1011.5 |
| 20260902234710 | 52 | 341 | 0.9 | 7.0 | 0.11 | 0.31 | 0.31 | 93 | 1011.6 |
| 20260902234209 | 52 | 178 | 1.7 | 7.0 | 0.09 | 0.29 | 0.29 | 93 | 1011.6 |
| 20260902233704 | 52 | 137 | 0.9 | 5.2 | 0.08 | 0.27 | 0.28 | 93 | 1011.4 |
| 20260902233205 | 52 | 261 | 0.0 | 5.2 | 0.07 | 0.26 | 0.26 | 93 | 1011.4 |
| 20260902232705 | 53 | 56 | 0.9 | 6.1 | 0.07 | 0.25 | 0.25 | 93 | 1011.2 |
| 20260902232206 | 53 | 171 | 0.9 | 6.1 | 0.08 | 0.24 | 0.24 | 93 | 1011.4 |
| 20260902231705 | 53 | 260 | 0.9 | 10.4 | 0.08 | 0.23 | 0.23 | 92 | 1011.4 |
| 20260902231427 | 53 | 162 | 1.7 | 11.3 | 0.08 | 0.22 | 0.22 | 92 | 1011.4 |
| 20260902230706 | 53 | 179 | 3.5 | 11.3 | 0.08 | 0.21 | 0.21 | 92 | 1011.2 |
| 20260902230201 | 53 | 223 | 1.7 | 13.9 | 0.10 | 0.21 | 0.21 | 92 | 1011.0 |
| 20260902225700 | 53 | 169 | 3.5 | 13.9 | 0.10 | 0.20 | 0.20 | 92 | 1011.1 |
| 20260902225201 | 53 | 168 | 2.6 | 9.6 | 0.12 | 0.20 | 0.20 | 92 | 1010.9 |
| 20260902224701 | 53 | 0 | 3.5 | 13.9 | 0.15 | 0.20 | 0.20 | 92 | 1010.6 |
| 20260902224201 | 53 | 42 | 3.5 | 13.9 | 0.18 | 0.20 | 0.20 | 92 | 1010.7 |
| 20260902223701 | 53 | 152 | 3.5 | 12.2 | 0.18 | 0.19 | 0.19 | 92 | 1010.7 |
| 20260902223201 | 53 | 169 | 2.6 | 14.8 | 0.18 | 0.19 | 0.19 | 92 | 1010.6 |
| 20260902222657 | 53 | 263 | 2.6 | 15.6 | 0.17 | 0.18 | 0.18 | 92 | 1010.3 |
| 20260902222157 | 54 | 37 | 4.3 | 15.6 | 0.16 | 0.16 | 0.16 | 92 | 1010.2 |
| 20260902221656 | 54 | 152 | 4.3 | 16.5 | 0.15 | 0.15 | 0.15 | 92 | 1010.2 |
| 20260902221157 | 54 | 327 | 5.2 | 16.5 | 0.14 | 0.14 | 0.14 | 92 | 1009.9 |
| 20260902220657 | 54 | 310 | 5.2 | 14.8 | 0.13 | 0.13 | 0.13 | 91 | 1009.7 |
| 20260902220157 | 54 | 101 | 6.1 | 15.6 | 0.11 | 0.11 | 0.12 | 91 | 1009.5 |
| 20260902215657 | 54 | 263 | 7.0 | 15.6 | 0.10 | 0.10 | 0.10 | 90 | 1009.5 |
| 20260902215157 | 54 | 342 | 5.2 | 18.2 | 0.08 | 0.08 | 0.08 | 89 | 1009.7 |
| 20260902214700 | 55 | 49 | 3.5 | 18.2 | 0.04 | 0.04 | 0.05 | 88 | 1009.2 |
| 20260902214419 | 56 | 241 | 7.0 | 15.6 | 0.02 | 0.02 | 0.02 | 86 | 1009.3 |
| 20260902213652 | 56 | 74 | 7.0 | 14.8 | 0.01 | 0.01 | 0.01 | 84 | 1009.2 |
| 20260902213153 | 57 | 207 | 7.0 | 20.9 | 0.01 | 0.01 | 0.01 | 83 | 1009.3 |
| 20260902212915 | 59 | 344 | 5.2 | 20.9 | 0.01 | 0.01 | 0.01 | 81 | 1009.0 |
| 20260902212509 | 60 | 342 | 6.1 | 19.1 | 0.00 | 0.00 | 0.00 | 77 | 1008.2 |
| 20260902212402 | 61 | 150 | 7.8 | 20.9 | 0.00 | 0.00 | 0.00 | 73 | 1008.5 |
| 20260902211149 | 62 | 205 | 6.1 | 22.6 | 0.00 | 0.00 | 0.00 | 70 | 1008.2 |
| 20260902210905 | 64 | 322 | 7.8 | 22.6 | 0.00 | 0.00 | 0.00 | 67 | 1007.9 |
| 20260902210143 | 65 | 339 | 3.5 | 24.3 | 0.00 | 0.00 | 0.00 | 62 | 1007.2 |
| 20260902205644 | 67 | 242 | 5.2 | 24.3 | 0.00 | 0.00 | 0.00 | 59 | 1007.4 |
| 20260902205144 | 69 | 54 | 5.2 | 14.8 | 0.00 | 0.00 | 0.00 | 56 | 1007.4 |
| 20260902204908 | 71 | 321 | 2.6 | 11.3 | 0.00 | 0.00 | 0.00 | 55 | 1007.1 |
| 20260902204144 | 72 | 326 | 2.6 | 11.3 | 0.00 | 0.00 | 0.00 | 53 | 1007.1 |
| 20260902203900 | 73 | 342 | 0.9 | 6.1 | 0.00 | 0.00 | 0.00 | 53 | 1006.9 |
| 20260902203405 | 73 | 33 | 2.6 | 7.0 | 0.00 | 0.00 | 0.00 | 51 | 1007.0 |
| 20260902202640 | 73 | 71 | 1.7 | 7.0 | 0.00 | 0.00 | 0.00 | 51 | 1006.9 |
| 20260902202140 | 73 | 214 | 1.7 | 9.6 | 0.00 | 0.00 | 0.00 | 51 | 1006.8 |
| 20260902201904 | 73 | 24 | 2.6 | 9.6 | 0.00 | 0.00 | 0.00 | 53 | 1007.0 |
| 20260902201136 | 73 | 348 | 0.9 | 13.9 | 0.00 | 0.00 | 0.00 | 52 | 1007.0 |
| 20260902200636 | 73 | 183 | 3.5 | 13.9 | 0.00 | 0.00 | 0.00 | 50 | 1006.8 |
| 20260902200136 | 73 | 134 | 0.0 | 5.2 | 0.00 | 0.00 | 0.00 | 51 | 1006.8 |
| 20260902195635 | 73 | 209 | 1.7 | 5.2 | 0.00 | 0.00 | 0.00 | 49 | 1006.8 |
| 20260902195136 | 73 | 26 | 0.9 | 9.6 | 0.00 | 0.00 | 0.00 | 50 | 1006.9 |
| 20260902194859 | 74 | 325 | 0.0 | 9.6 | 0.00 | 0.00 | 0.00 | 50 | 1007.0 |
| 20260902194136 | 74 | 11 | 0.9 | 7.8 | 0.00 | 0.00 | 0.00 | 48 | 1007.1 |
| 20260902193632 | 74 | 326 | 0.9 | 7.0 | 0.00 | 0.00 | 0.00 | 47 | 1007.3 |
| 20260902193127 | 74 | 5 | 1.7 | 7.0 | 0.00 | 0.00 | 0.00 | 48 | 1007.3 |
| 20260902192621 | 74 | 240 | 0.9 | 8.7 | 0.00 | 0.00 | 0.00 | 49 | 1007.3 |
| 20260902192122 | 74 | 339 | 2.6 | 8.7 | 0.00 | 0.00 | 0.00 | 47 | 1007.4 |
| 20260902191622 | 74 | 200 | 0.9 | 10.4 | 0.00 | 0.00 | 0.00 | 51 | 1007.4 |
| 20260902191123 | 74 | 111 | 1.7 | 10.4 | 0.00 | 0.00 | 0.00 | 51 | 1007.4 |
| 20260902190617 | 74 | 167 | 1.7 | 6.1 | 0.00 | 0.00 | 0.00 | 52 | 1007.6 |
| 20260902190113 | 74 | 53 | 0.9 | 4.3 | 0.00 | 0.00 | 0.00 | 50 | 1007.6 |
| 20260902185603 | 73 | 279 | 0.0 | 6.1 | 0.00 | 0.00 | 0.00 | 50 | 1007.6 |
| 20260902185103 | 73 | 184 | 0.9 | 7.0 | 0.00 | 0.00 | 0.00 | 52 | 1007.7 |
| 20260902185045 | 73 | 334 | 2.6 | 7.0 | 0.00 | 0.00 | 0.00 | 52 | 1007.8 |
| 20260902184105 | 73 | 293 | 0.9 | 7.8 | 0.00 | 0.00 | 0.00 | 54 | 1007.6 |
| 20260902183604 | 73 | 220 | 0.9 | 7.8 | 0.00 | 0.00 | 0.00 | 53 | 1007.7 |
| 20260902183104 | 73 | 33 | 2.6 | 7.8 | 0.00 | 0.00 | 0.00 | 50 | 1007.7 |
| 20260902182559 | 73 | 30 | 0.0 | 2.6 | 0.00 | 0.00 | 0.00 | 56 | 1007.7 |
| 20260902182059 | 72 | 33 | 0.0 | 3.5 | 0.00 | 0.00 | 0.00 | 54 | 1007.8 |
| 20260902181559 | 72 | 36 | 0.0 | 6.1 | 0.00 | 0.00 | 0.00 | 53 | 1007.8 |
| 20260902181059 | 72 | 328 | 0.9 | 6.1 | 0.00 | 0.00 | 0.00 | 54 | 1007.8 |
| 20260902180554 | 71 | 350 | 0.0 | 5.2 | 0.00 | 0.00 | 0.00 | 55 | 1007.8 |
| 20260902180057 | 71 | 301 | 0.9 | 4.3 | 0.00 | 0.00 | 0.00 | 57 | 1007.8 |
| 20260902175550 | 71 | 148 | 0.0 | 1.7 | 0.00 | 0.00 | 0.00 | 56 | 1007.8 |
| 20260902175050 | 71 | 88 | 0.0 | 0.9 | 0.00 | 0.00 | 0.00 | 57 | 1007.8 |
| 20260902174550 | 70 | 89 | 0.0 | 1.7 | 0.00 | 0.00 | 0.00 | 56 | 1007.8 |
| 20260902174314 | 70 | 88 | 0.0 | 1.7 | 0.00 | 0.00 | 0.00 | 58 | 1007.8 |
| 20260902173551 | 70 | 88 | 0.0 | 2.6 | 0.00 | 0.00 | 0.00 | 57 | 1007.9 |
| 20260902173050 | 69 | 88 | 0.0 | 3.5 | 0.00 | 0.00 | 0.00 | 58 | 1007.9 |
| 20260902172546 | 69 | 81 | 0.0 | 3.5 | 0.00 | 0.00 | 0.00 | 60 | 1008.0 |
| 20260902172036 | 69 | 57 | 0.0 | 2.6 | 0.00 | 0.00 | 0.00 | 58 | 1008.0 |
| 20260902171752 | 69 | 57 | 0.0 | 2.6 | 0.00 | 0.00 | 0.00 | 57 | 1008.0 |
| 20260902171253 | 69 | 159 | 0.0 | 1.7 | 0.00 | 0.00 | 0.00 | 60 | 1008.0 |
| 20260902170537 | 68 | 154 | 0.0 | 2.6 | 0.00 | 0.00 | 0.00 | 63 | 1008.2 |
| 20260902170036 | 68 | 148 | 0.0 | 2.6 | 0.00 | 0.00 | 0.00 | 62 | 1008.1 |
| 20260902165753 | 67 | 179 | 0.0 | 3.5 | 0.00 | 0.00 | 0.00 | 64 | 1008.1 |
| 20260902165011 | 67 | 88 | 0.0 | 0.9 | 0.00 | 0.00 | 0.00 | 66 | 1008.2 |
| 20260902164506 | 67 | 87 | 0.0 | 0.9 | 0.00 | 0.00 | 0.00 | 67 | 1008.2 |